Location: Seattle
(47.6064°N, 122.3308°W)
Time: 23:49:06
(UTC-08:00)

A-11 Canister half - Pass Details

Date: 03 December 2020
Orbit: 1524 x 1684 km, 47.3° (Epoch: 27 January)

Event Time Altitude Azimuth Distance (km) Brightness Sun altitude
Rises 07:19:02 0° 264° (W) 4,937 11.1 -3.8°
Reaches altitude 10° 07:22:13 10° 265° (W) 3,944 10.7 -3.4°
Maximum altitude 07:32:25 89° 179° (S) 1,664 9.3 -1.9°
Drops below altitude 10° 07:42:21 10° 90° (E) 3,850 12.1 -0.5°
Sets 07:45:25 0° 90° (E) 4,815 12.7 0.0°
